Time,TemperatureF,DewpointF,PressureIn,WindDirection,WindDirectionDegrees,WindSpeedMPH,WindSpeedGustMPH,Humidity,HourlyPrecipIn,Conditions,Clouds,dailyrainin,SoftwareType,DateUTC
2013-05-22 00:02:00,50.4,3.0,30.11,NW,309,3.1,5.8,14,0.00,,,0.00,VWS V14.01,2013-05-22 07:02:00,
2013-05-22 00:07:00,50.4,3.0,30.11,NNE,27,4.0,4.0,14,0.00,,,0.00,VWS V14.01,2013-05-22 07:07:00,
2013-05-22 00:12:00,50.4,3.0,30.11,WNW,298,3.1,3.1,14,0.00,,,0.00,VWS V14.01,2013-05-22 07:12:00,
2013-05-22 00:17:00,50.4,3.0,30.11,NW,316,10.5,10.5,14,0.00,,,0.00,VWS V14.01,2013-05-22 07:17:00,
2013-05-22 00:22:00,50.4,3.0,30.11,NNW,335,3.1,7.2,14,0.00,,,0.00,VWS V14.01,2013-05-22 07:22:00,
2013-05-22 00:27:00,50.4,3.0,30.11,West,261,5.8,6.3,14,0.00,,,0.00,VWS V14.01,2013-05-22 07:27:00,
2013-05-22 00:32:00,50.4,3.0,30.11,South,190,11.0,11.0,14,0.00,,,0.00,VWS V14.01,2013-05-22 07:32:00,
2013-05-22 00:37:00,50.4,3.0,30.11,West,268,3.1,10.1,14,0.00,,,0.00,VWS V14.01,2013-05-22 07:37:00,
2013-05-22 00:42:00,50.4,3.0,30.11,WSW,243,6.3,7.6,14,0.00,,,0.00,VWS V14.01,2013-05-22 07:42:00,
2013-05-22 00:48:00,50.2,2.8,30.11,WNW,286,5.8,8.1,14,0.00,,,0.00,VWS V14.01,2013-05-22 07:48:00,
2013-05-22 00:53:00,50.0,2.7,30.11,North,357,5.8,5.8,14,0.00,,,0.00,VWS V14.01,2013-05-22 07:53:00,
2013-05-22 00:58:00,49.8,2.5,30.11,NW,304,6.3,8.7,14,0.00,,,0.00,VWS V14.01,2013-05-22 07:58:00,
2013-05-22 01:03:00,49.6,2.4,30.11,North,353,5.8,11.0,14,0.00,,,0.00,VWS V14.01,2013-05-22 08:03:00,
2013-05-22 01:08:00,49.6,2.4,30.11,NNW,332,4.9,7.6,14,0.00,,,0.00,VWS V14.01,2013-05-22 08:08:00,
2013-05-22 01:13:00,49.5,2.3,30.11,NW,324,10.1,10.1,14,0.00,,,0.00,VWS V14.01,2013-05-22 08:13:00,
2013-05-22 01:18:00,49.3,2.1,30.11,North,353,3.6,4.0,14,0.00,,,0.00,VWS V14.01,2013-05-22 08:18:00,
2013-05-22 01:23:00,49.3,2.1,30.11,WNW,286,6.3,6.3,14,0.00,,,0.00,VWS V14.01,2013-05-22 08:23:00,
2013-05-22 01:28:00,49.1,2.0,30.11,WNW,289,7.2,7.2,14,0.00,,,0.00,VWS V14.01,2013-05-22 08:28:00,
2013-05-22 01:33:00,48.9,1.8,30.11,North,353,4.0,7.2,14,0.00,,,0.00,VWS V14.01,2013-05-22 08:33:00,
2013-05-22 01:38:00,48.9,1.8,30.11,NNW,343,4.0,5.8,14,0.00,,,0.00,VWS V14.01,2013-05-22 08:38:00,
2013-05-22 01:43:00,48.7,1.7,30.11,NNE,12,4.0,4.0,14,0.00,,,0.00,VWS V14.01,2013-05-22 08:43:00,
2013-05-22 01:48:00,48.7,1.7,30.11,ENE,61,3.1,7.2,14,0.00,,,0.00,VWS V14.01,2013-05-22 08:48:00,
2013-05-22 01:53:00,48.6,1.5,30.11,West,261,3.1,5.4,14,0.00,,,0.00,VWS V14.01,2013-05-22 08:53:00,
2013-05-22 01:58:00,48.6,1.5,30.11,North,353,3.1,3.6,14,0.00,,,0.00,VWS V14.01,2013-05-22 08:58:00,
2013-05-22 02:03:00,48.6,1.5,30.11,NNW,341,7.6,7.6,14,0.00,,,0.00,VWS V14.01,2013-05-22 09:03:00,
2013-05-22 02:08:00,48.4,1.4,30.11,NW,305,5.4,5.4,14,0.00,,,0.00,VWS V14.01,2013-05-22 09:08:00,
2013-05-22 02:13:00,48.4,1.4,30.11,SW,218,3.6,5.8,14,0.00,,,0.00,VWS V14.01,2013-05-22 09:13:00,
2013-05-22 02:18:00,48.2,1.2,30.11,North,5,5.4,5.8,14,0.00,,,0.00,VWS V14.01,2013-05-22 09:18:00,
2013-05-22 02:23:00,48.2,1.2,30.11,NNE,29,3.1,5.8,14,0.00,,,0.00,VWS V14.01,2013-05-22 09:23:00,
2013-05-22 02:28:00,48.0,1.1,30.11,West,266,3.1,4.0,14,0.00,,,0.00,VWS V14.01,2013-05-22 09:28:00,
2013-05-22 02:33:00,48.0,1.1,30.11,WNW,301,5.8,5.8,14,0.00,,,0.00,VWS V14.01,2013-05-22 09:33:00,
2013-05-22 02:38:00,47.8,1.0,30.11,WNW,298,2.7,5.4,14,0.00,,,0.00,VWS V14.01,2013-05-22 09:38:00,
2013-05-22 02:43:00,47.7,0.8,30.11,WNW,283,2.7,3.6,14,0.00,,,0.00,VWS V14.01,2013-05-22 09:43:00,
2013-05-22 02:48:00,47.7,0.8,30.11,West,267,4.9,4.9,14,0.00,,,0.00,VWS V14.01,2013-05-22 09:48:00,
2013-05-22 02:53:00,47.7,0.8,30.11,NNE,14,8.1,8.1,14,0.00,,,0.00,VWS V14.01,2013-05-22 09:53:00,
2013-05-22 02:58:00,47.7,0.8,30.11,WNW,292,5.4,6.3,14,0.00,,,0.00,VWS V14.01,2013-05-22 09:58:00,
2013-05-22 03:03:00,47.5,0.7,30.11,WNW,301,3.6,3.6,14,0.00,,,0.00,VWS V14.01,2013-05-22 10:03:00,
2013-05-22 03:09:00,47.3,0.5,30.11,North,357,3.6,3.6,14,0.00,,,0.00,VWS V14.01,2013-05-22 10:09:00,
2013-05-22 03:14:00,47.3,0.5,30.11,NNW,329,3.1,7.6,14,0.00,,,0.00,VWS V14.01,2013-05-22 10:14:00,
2013-05-22 03:19:00,47.3,0.5,30.11,ENE,68,3.6,3.6,14,0.00,,,0.00,VWS V14.01,2013-05-22 10:19:00,
2013-05-22 03:24:00,47.3,0.5,30.11,NNW,333,5.8,5.8,14,0.00,,,0.00,VWS V14.01,2013-05-22 10:24:00,
2013-05-22 03:29:00,47.3,0.5,30.11,NE,39,4.0,6.3,14,0.00,,,0.00,VWS V14.01,2013-05-22 10:29:00,
2013-05-22 03:34:00,47.3,0.5,30.11,NNE,26,3.1,4.0,14,0.00,,,0.00,VWS V14.01,2013-05-22 10:34:00,
2013-05-22 03:39:00,47.1,0.4,30.11,WNW,300,2.7,4.0,14,0.00,,,0.00,VWS V14.01,2013-05-22 10:39:00,
2013-05-22 03:44:00,47.1,0.4,30.11,NW,318,4.0,6.3,14,0.00,,,0.00,VWS V14.01,2013-05-22 10:44:00,
2013-05-22 03:49:00,47.1,0.4,30.11,NNE,29,3.1,4.9,14,0.00,,,0.00,VWS V14.01,2013-05-22 10:49:00,
2013-05-22 03:54:00,46.9,0.2,30.11,West,277,2.7,5.4,14,0.00,,,0.00,VWS V14.01,2013-05-22 10:54:00,
2013-05-22 03:59:00,46.8,0.1,30.11,NW,308,2.2,2.2,14,0.00,,,0.00,VWS V14.01,2013-05-22 10:59:00,
2013-05-22 04:04:00,46.8,0.1,30.11,NNW,328,2.7,4.0,14,0.00,,,0.00,VWS V14.01,2013-05-22 11:04:00,
2013-05-22 04:09:00,46.6,-0.1,30.11,North,0,3.1,4.9,14,0.00,,,0.00,VWS V14.01,2013-05-22 11:09:00,
2013-05-22 04:14:00,46.6,-0.1,30.11,WNW,298,7.2,7.2,14,0.00,,,0.00,VWS V14.01,2013-05-22 11:14:00,
2013-05-22 04:19:00,46.6,-0.1,30.11,North,5,3.1,4.0,14,0.00,,,0.00,VWS V14.01,2013-05-22 11:19:00,
2013-05-22 04:24:00,46.4,-0.2,30.11,WNW,285,3.6,3.6,14,0.00,,,0.00,VWS V14.01,2013-05-22 11:24:00,
2013-05-22 04:29:00,46.4,-0.2,30.11,NNE,27,3.1,3.1,14,0.00,,,0.00,VWS V14.01,2013-05-22 11:29:00,
2013-05-22 04:34:00,46.4,-0.2,30.11,NNW,333,4.0,5.4,14,0.00,,,0.00,VWS V14.01,2013-05-22 11:34:00,
2013-05-22 04:39:00,46.4,-0.2,30.11,NE,36,4.0,5.4,14,0.00,,,0.00,VWS V14.01,2013-05-22 11:39:00,
2013-05-22 04:44:00,46.2,1.1,30.11,WNW,297,3.1,3.6,15,0.00,,,0.00,VWS V14.01,2013-05-22 11:44:00,
2013-05-22 04:49:00,46.2,1.1,30.11,North,2,4.0,4.0,15,0.00,,,0.00,VWS V14.01,2013-05-22 11:49:00,
2013-05-22 04:54:00,46.2,1.1,30.11,WNW,303,5.8,5.8,15,0.00,,,0.00,VWS V14.01,2013-05-22 11:54:00,
2013-05-22 04:59:00,46.2,1.1,30.11,NNW,328,4.9,4.9,15,0.00,,,0.00,VWS V14.01,2013-05-22 11:59:00,
2013-05-22 05:04:00,46.0,1.0,30.11,North,11,2.7,4.0,15,0.00,,,0.00,VWS V14.01,2013-05-22 12:04:00,
2013-05-22 05:09:00,45.9,0.8,30.11,North,353,5.8,6.3,15,0.00,,,0.00,VWS V14.01,2013-05-22 12:09:00,
2013-05-22 05:14:00,45.9,0.8,30.11,North,2,6.3,6.3,15,0.00,,,0.00,VWS V14.01,2013-05-22 12:14:00,
2013-05-22 05:19:00,46.0,1.0,30.11,West,268,2.7,5.4,15,0.00,,,0.00,VWS V14.01,2013-05-22 12:19:00,
2013-05-22 05:24:00,45.9,0.8,30.11,NNE,26,4.0,5.8,15,0.00,,,0.00,VWS V14.01,2013-05-22 12:24:00,
2013-05-22 05:29:00,45.9,0.8,30.11,NNE,16,4.9,4.9,15,0.00,,,0.00,VWS V14.01,2013-05-22 12:29:00,
2013-05-22 05:34:00,45.9,0.8,30.11,West,275,6.3,6.3,15,0.00,,,0.00,VWS V14.01,2013-05-22 12:34:00,
2013-05-22 05:39:00,45.7,0.7,30.11,North,357,3.6,3.6,15,0.00,,,0.00,VWS V14.01,2013-05-22 12:39:00,
2013-05-22 05:44:00,45.5,0.6,30.11,NNE,18,4.9,5.8,15,0.00,,,0.00,VWS V14.01,2013-05-22 12:44:00,
2013-05-22 05:49:00,45.5,0.6,30.11,WSW,256,4.0,5.4,15,0.00,,,0.00,VWS V14.01,2013-05-22 12:49:00,
2013-05-22 05:54:00,45.3,0.4,30.11,NNW,337,3.6,4.0,15,0.00,,,0.00,VWS V14.01,2013-05-22 12:54:00,
2013-05-22 05:59:00,45.1,0.3,30.11,NNW,346,5.8,7.6,15,0.00,,,0.00,VWS V14.01,2013-05-22 12:59:00,
2013-05-22 06:04:00,45.1,0.3,30.11,NNE,21,3.6,5.8,15,0.00,,,0.00,VWS V14.01,2013-05-22 13:04:00,
2013-05-22 06:09:00,45.0,0.1,30.11,North,357,4.9,4.9,15,0.00,,,0.00,VWS V14.01,2013-05-22 13:09:00,
2013-05-22 06:15:00,45.0,0.1,30.11,NNE,19,4.9,4.9,15,0.00,,,0.00,VWS V14.01,2013-05-22 13:15:00,
2013-05-22 06:20:00,45.0,0.1,30.11,NW,310,5.4,6.3,15,0.00,,,0.00,VWS V14.01,2013-05-22 13:20:00,
2013-05-22 06:25:00,45.1,0.3,30.11,NW,322,6.3,6.3,15,0.00,,,0.00,VWS V14.01,2013-05-22 13:25:00,
2013-05-22 06:30:00,45.1,0.3,30.11,WNW,301,5.4,5.8,15,0.00,,,0.00,VWS V14.01,2013-05-22 13:30:00,
2013-05-22 06:35:00,45.1,0.3,30.11,NW,307,3.1,3.1,15,0.00,,,0.00,VWS V14.01,2013-05-22 13:35:00,
2013-05-22 06:40:00,45.1,0.3,30.11,ENE,75,2.2,2.2,15,0.00,,,0.00,VWS V14.01,2013-05-22 13:40:00,
2013-05-22 06:44:00,45.1,0.3,30.11,North,353,4.0,4.0,15,0.00,,,0.00,VWS V14.01,2013-05-22 13:44:00,
2013-05-22 06:50:00,45.3,0.4,30.11,NNW,341,4.0,4.0,15,0.00,,,0.00,VWS V14.01,2013-05-22 13:50:00,
2013-05-22 06:55:00,45.3,0.4,30.11,NNW,339,3.6,8.3,15,0.00,,,0.00,VWS V14.01,2013-05-22 13:55:00,
2013-05-22 07:00:00,45.5,0.6,30.11,NNW,341,3.1,3.1,15,0.00,,,0.00,VWS V14.01,2013-05-22 14:00:00,
2013-05-22 07:05:00,45.9,0.8,30.11,NNE,32,0.0,0.0,15,0.00,,,0.00,VWS V14.01,2013-05-22 14:05:00,
2013-05-22 07:10:00,46.2,1.1,30.11,NNW,332,4.0,4.0,15,0.00,,,0.00,VWS V14.01,2013-05-22 14:10:00,
2013-05-22 07:15:00,46.9,0.2,30.11,NNW,329,2.7,2.7,14,0.00,,,0.00,VWS V14.01,2013-05-22 14:15:00,
2013-05-22 07:20:00,47.5,0.7,30.11,ESE,107,2.7,2.7,14,0.00,,,0.00,VWS V14.01,2013-05-22 14:20:00,
2013-05-22 07:25:00,48.0,1.1,30.11,NNW,344,3.6,6.3,14,0.00,,,0.00,VWS V14.01,2013-05-22 14:25:00,
2013-05-22 07:30:00,48.0,1.1,30.11,WNW,286,4.5,5.8,14,0.00,,,0.00,VWS V14.01,2013-05-22 14:30:00,
2013-05-22 07:35:00,48.4,1.4,30.11,North,0,4.9,6.3,14,0.00,,,0.00,VWS V14.01,2013-05-22 14:35:00,
2013-05-22 07:40:00,48.6,1.5,30.11,NNW,342,4.0,4.0,14,0.00,,,0.00,VWS V14.01,2013-05-22 14:40:00,
2013-05-22 07:45:00,48.9,1.8,30.11,West,272,5.4,5.4,14,0.00,,,0.00,VWS V14.01,2013-05-22 14:45:00,
2013-05-22 07:50:00,49.3,2.1,30.11,NW,313,3.6,3.6,14,0.00,,,0.00,VWS V14.01,2013-05-22 14:50:00,
2013-05-22 07:55:00,49.5,2.3,30.11,North,357,3.6,7.6,14,0.00,,,0.00,VWS V14.01,2013-05-22 14:55:00,
2013-05-22 08:00:00,49.6,2.4,30.11,ENE,77,4.0,4.0,14,0.00,,,0.00,VWS V14.01,2013-05-22 15:00:00,
2013-05-22 08:05:00,50.0,2.7,30.11,NW,307,3.1,4.0,14,0.00,,,0.00,VWS V14.01,2013-05-22 15:05:00,
2013-05-22 08:10:00,50.2,2.8,30.11,NW,325,3.6,6.3,14,0.00,,,0.00,VWS V14.01,2013-05-22 15:10:00,
2013-05-22 08:15:00,50.2,2.8,30.11,WNW,285,4.9,5.4,14,0.00,,,0.00,VWS V14.01,2013-05-22 15:15:00,
2013-05-22 08:20:00,50.5,3.1,30.11,West,281,5.4,8.7,14,0.00,,,0.00,VWS V14.01,2013-05-22 15:20:00,
2013-05-22 08:25:00,50.7,3.3,30.11,NW,305,2.7,3.6,14,0.00,,,0.00,VWS V14.01,2013-05-22 15:25:00,
2013-05-22 08:30:00,50.9,3.4,30.11,WNW,296,3.1,7.6,14,0.00,,,0.00,VWS V14.01,2013-05-22 15:30:00,
2013-05-22 08:35:00,51.3,3.7,30.11,WNW,284,5.8,6.3,14,0.00,,,0.00,VWS V14.01,2013-05-22 15:35:00,
2013-05-22 08:40:00,51.1,3.6,30.11,NW,322,4.0,4.9,14,0.00,,,0.00,VWS V14.01,2013-05-22 15:40:00,
2013-05-22 08:45:00,51.4,3.8,30.11,NE,42,3.6,5.8,14,0.00,,,0.00,VWS V14.01,2013-05-22 15:45:00,
2013-05-22 08:50:00,51.6,4.0,30.11,ENE,71,3.6,4.0,14,0.00,,,0.00,VWS V14.01,2013-05-22 15:50:00,
2013-05-22 08:55:00,52.2,2.8,30.11,North,10,4.0,4.0,13,0.00,,,0.00,VWS V14.01,2013-05-22 15:55:00,
2013-05-22 09:00:00,52.3,3.0,30.11,NW,311,5.8,5.8,13,0.00,,,0.00,VWS V14.01,2013-05-22 16:00:00,
2013-05-22 09:05:00,51.8,2.5,30.11,NW,305,5.4,6.3,13,0.00,,,0.00,VWS V14.01,2013-05-22 16:05:00,
2013-05-22 09:10:00,52.2,2.8,30.11,West,264,7.6,8.3,13,0.00,,,0.00,VWS V14.01,2013-05-22 16:10:00,
2013-05-22 09:15:00,52.3,3.0,30.11,WNW,293,5.4,10.1,13,0.00,,,0.00,VWS V14.01,2013-05-22 16:15:00,
2013-05-22 09:21:00,52.7,3.2,30.11,NW,305,6.3,6.3,13,0.00,,,0.00,VWS V14.01,2013-05-22 16:21:00,
2013-05-22 09:26:00,53.2,3.7,30.11,NNW,342,7.6,7.6,13,0.00,,,0.00,VWS V14.01,2013-05-22 16:26:00,
2013-05-22 09:31:00,53.6,4.0,30.11,NE,34,5.4,7.6,13,0.00,,,0.00,VWS V14.01,2013-05-22 16:31:00,
2013-05-22 09:36:00,53.8,4.1,30.11,WNW,282,7.6,7.6,13,0.00,,,0.00,VWS V14.01,2013-05-22 16:36:00,
2013-05-22 09:41:00,54.0,4.2,30.11,WNW,286,3.1,3.6,13,0.00,,,0.00,VWS V14.01,2013-05-22 16:41:00,
2013-05-22 09:46:00,54.5,4.7,30.11,North,353,4.9,5.8,13,0.00,,,0.00,VWS V14.01,2013-05-22 16:46:00,
2013-05-22 09:51:00,54.9,5.0,30.11,WNW,301,3.1,3.6,13,0.00,,,0.00,VWS V14.01,2013-05-22 16:51:00,
2013-05-22 09:56:00,55.0,5.1,30.11,SSW,192,5.8,5.8,13,0.00,,,0.00,VWS V14.01,2013-05-22 16:56:00,
2013-05-22 10:01:00,54.9,5.0,30.11,NNW,332,6.3,6.3,13,0.00,,,0.00,VWS V14.01,2013-05-22 17:01:00,
2013-05-22 10:06:00,54.9,5.0,30.11,WNW,295,8.1,8.7,13,0.00,,,0.00,VWS V14.01,2013-05-22 17:06:00,
2013-05-22 10:11:00,54.9,5.0,30.11,West,271,10.5,10.5,13,0.00,,,0.00,VWS V14.01,2013-05-22 17:11:00,
2013-05-22 10:16:00,55.2,5.2,30.11,WNW,295,4.9,4.9,13,0.00,,,0.00,VWS V14.01,2013-05-22 17:16:00,
2013-05-22 10:21:00,55.8,3.9,30.11,NW,310,4.9,4.9,12,0.00,,,0.00,VWS V14.01,2013-05-22 17:21:00,
2013-05-22 10:26:00,56.3,4.4,30.11,NW,320,3.1,5.8,12,0.00,,,0.00,VWS V14.01,2013-05-22 17:26:00,
2013-05-22 10:31:00,56.7,4.6,30.11,WNW,284,2.7,4.0,12,0.00,,,0.00,VWS V14.01,2013-05-22 17:31:00,
2013-05-22 10:36:00,57.2,5.1,30.11,West,280,4.0,6.3,12,0.00,,,0.00,VWS V14.01,2013-05-22 17:36:00,
2013-05-22 10:41:00,57.7,5.5,30.11,NNW,327,6.3,6.3,12,0.00,,,0.00,VWS V14.01,2013-05-22 17:41:00,
2013-05-22 10:46:00,57.7,5.5,30.11,NW,321,4.9,4.9,12,0.00,,,0.00,VWS V14.01,2013-05-22 17:46:00,
2013-05-22 10:51:00,58.3,5.9,30.11,NNW,348,4.0,5.4,12,0.00,,,0.00,VWS V14.01,2013-05-22 17:51:00,
2013-05-22 10:56:00,58.3,5.9,30.11,SW,225,5.8,7.6,12,0.00,,,0.00,VWS V14.01,2013-05-22 17:56:00,
2013-05-22 11:01:00,58.6,6.2,30.11,West,264,4.0,5.4,12,0.00,,,0.00,VWS V14.01,2013-05-22 18:01:00,
2013-05-22 11:06:00,59.2,6.6,30.11,WNW,302,5.8,5.8,12,0.00,,,0.00,VWS V14.01,2013-05-22 18:06:00,
2013-05-22 11:11:00,59.2,6.6,30.11,NW,307,6.3,6.3,12,0.00,,,0.00,VWS V14.01,2013-05-22 18:11:00,
2013-05-22 11:16:00,59.4,6.8,30.11,NNE,28,3.1,3.1,12,0.00,,,0.00,VWS V14.01,2013-05-22 18:16:00,
2013-05-22 11:21:00,60.1,7.3,30.11,West,279,4.0,7.6,12,0.00,,,0.00,VWS V14.01,2013-05-22 18:21:00,
2013-05-22 11:26:00,60.3,7.5,30.11,NW,305,3.6,8.1,12,0.00,,,0.00,VWS V14.01,2013-05-22 18:26:00,
2013-05-22 11:31:00,60.4,7.6,30.11,WNW,297,5.4,7.6,12,0.00,,,0.00,VWS V14.01,2013-05-22 18:31:00,
2013-05-22 11:36:00,60.6,7.8,30.11,NNW,328,3.6,3.6,12,0.00,,,0.00,VWS V14.01,2013-05-22 18:36:00,
2013-05-22 11:41:00,60.8,6.0,30.11,NNW,345,3.1,4.9,11,0.00,,,0.00,VWS V14.01,2013-05-22 18:41:00,
2013-05-22 11:46:00,61.5,6.5,30.11,West,279,5.4,5.4,11,0.00,,,0.00,VWS V14.01,2013-05-22 18:46:00,
2013-05-22 11:51:00,62.1,7.0,30.11,NW,305,3.1,5.4,11,0.00,,,0.00,VWS V14.01,2013-05-22 18:51:00,
2013-05-22 11:56:00,62.2,7.1,30.11,West,269,6.7,6.7,11,0.00,,,0.00,VWS V14.01,2013-05-22 18:56:00,
2013-05-22 12:01:00,62.4,7.2,30.11,NNW,335,2.7,3.6,11,0.00,,,0.00,VWS V14.01,2013-05-22 19:01:00,
2013-05-22 12:07:00,62.6,7.4,30.11,North,9,0.0,2.7,11,0.00,,,0.00,VWS V14.01,2013-05-22 19:07:00,
2013-05-22 12:12:00,63.0,7.7,30.11,ENE,71,3.1,3.1,11,0.00,,,0.00,VWS V14.01,2013-05-22 19:12:00,
2013-05-22 12:17:00,63.5,8.1,30.11,SW,227,3.6,5.8,11,0.00,,,0.00,VWS V14.01,2013-05-22 19:17:00,
2013-05-22 12:22:00,63.5,8.1,30.11,SSE,158,4.0,4.9,11,0.00,,,0.00,VWS V14.01,2013-05-22 19:22:00,
2013-05-22 12:27:00,64.0,8.5,30.11,WSW,249,3.6,3.6,11,0.00,,,0.00,VWS V14.01,2013-05-22 19:27:00,
2013-05-22 12:32:00,64.0,8.5,30.11,SW,227,7.6,7.6,11,0.00,,,0.00,VWS V14.01,2013-05-22 19:32:00,
2013-05-22 12:37:00,64.2,8.6,30.11,West,261,3.1,3.1,11,0.00,,,0.00,VWS V14.01,2013-05-22 19:37:00,
2013-05-22 12:42:00,64.4,6.7,30.11,WNW,301,4.0,4.9,10,0.00,,,0.00,VWS V14.01,2013-05-22 19:42:00,
2013-05-22 12:47:00,64.6,6.8,30.11,SSW,207,4.0,4.0,10,0.00,,,0.00,VWS V14.01,2013-05-22 19:47:00,
2013-05-22 12:52:00,64.6,6.8,30.11,SW,217,3.1,3.1,10,0.00,,,0.00,VWS V14.01,2013-05-22 19:52:00,
2013-05-22 12:57:00,64.6,6.8,30.11,SW,224,4.9,8.3,10,0.00,,,0.00,VWS V14.01,2013-05-22 19:57:00,
2013-05-22 13:02:00,64.8,6.9,30.11,West,264,7.6,7.6,10,0.00,,,0.00,VWS V14.01,2013-05-22 20:02:00,
2013-05-22 13:07:00,64.0,8.5,30.11,SW,216,3.6,4.0,11,0.00,,,0.00,VWS V14.01,2013-05-22 20:07:00,
2013-05-22 13:12:00,64.8,6.9,30.11,SSW,205,5.8,6.3,10,0.00,,,0.00,VWS V14.01,2013-05-22 20:12:00,
2013-05-22 13:17:00,64.6,6.8,30.11,SSW,196,5.8,5.8,10,0.00,,,0.00,VWS V14.01,2013-05-22 20:17:00,
2013-05-22 13:22:00,64.8,6.9,30.11,SW,226,4.0,6.3,10,0.00,,,0.00,VWS V14.01,2013-05-22 20:22:00,
2013-05-22 13:27:00,65.1,7.2,30.11,SE,141,4.9,6.3,10,0.00,,,0.00,VWS V14.01,2013-05-22 20:27:00,
2013-05-22 13:32:00,65.1,7.2,30.11,SW,235,6.3,6.3,10,0.00,,,0.00,VWS V14.01,2013-05-22 20:32:00,
2013-05-22 13:37:00,65.1,7.2,30.11,SW,233,4.0,4.0,10,0.00,,,0.00,VWS V14.01,2013-05-22 20:37:00,
2013-05-22 13:42:00,65.3,7.4,30.11,South,182,6.3,6.3,10,0.00,,,0.00,VWS V14.01,2013-05-22 20:42:00,
2013-05-22 13:47:00,66.0,7.9,30.11,SW,219,5.4,5.8,10,0.00,,,0.00,VWS V14.01,2013-05-22 20:47:00,
2013-05-22 13:52:00,66.0,7.9,30.11,WSW,246,6.3,6.3,10,0.00,,,0.00,VWS V14.01,2013-05-22 20:52:00,
2013-05-22 13:57:00,66.0,7.9,30.11,SW,219,8.7,8.7,10,0.00,,,0.00,VWS V14.01,2013-05-22 20:57:00,
2013-05-22 14:02:00,66.0,7.9,30.11,SW,232,5.8,5.8,10,0.00,,,0.00,VWS V14.01,2013-05-22 21:02:00,
2013-05-22 14:07:00,66.0,7.9,30.11,SW,218,5.8,8.3,10,0.00,,,0.00,VWS V14.01,2013-05-22 21:07:00,
2013-05-22 14:12:00,65.7,7.6,30.11,SSW,200,5.4,6.7,10,0.00,,,0.00,VWS V14.01,2013-05-22 21:12:00,
2013-05-22 14:17:00,65.8,7.8,30.11,SW,219,3.6,4.0,10,0.00,,,0.00,VWS V14.01,2013-05-22 21:17:00,
2013-05-22 14:22:00,66.4,8.2,30.11,SSE,167,5.8,5.8,10,0.00,,,0.00,VWS V14.01,2013-05-22 21:22:00,
2013-05-22 14:27:00,66.4,8.2,30.11,SSW,197,4.9,4.9,10,0.00,,,0.00,VWS V14.01,2013-05-22 21:27:00,
2013-05-22 14:32:00,66.2,8.1,30.11,SSW,195,4.9,4.9,10,0.00,,,0.00,VWS V14.01,2013-05-22 21:32:00,
2013-05-22 14:37:00,66.2,8.1,30.11,SW,233,8.3,8.3,10,0.00,,,0.00,VWS V14.01,2013-05-22 21:37:00,
2013-05-22 14:42:00,66.7,8.5,30.11,SSW,213,7.2,8.3,10,0.00,,,0.00,VWS V14.01,2013-05-22 21:42:00,
2013-05-22 14:47:00,66.9,8.6,30.11,South,171,5.4,6.3,10,0.00,,,0.00,VWS V14.01,2013-05-22 21:47:00,
2013-05-22 14:53:00,66.7,8.5,30.11,SSW,192,7.6,7.6,10,0.00,,,0.00,VWS V14.01,2013-05-22 21:53:00,
2013-05-22 14:57:00,66.7,8.5,30.11,SSW,207,7.6,8.7,10,0.00,,,0.00,VWS V14.01,2013-05-22 21:57:00,
2013-05-22 15:03:00,66.4,8.2,30.11,WSW,253,4.0,6.3,10,0.00,,,0.00,VWS V14.01,2013-05-22 22:03:00,
2013-05-22 15:08:00,66.4,8.2,30.11,WSW,248,5.4,7.6,10,0.00,,,0.00,VWS V14.01,2013-05-22 22:08:00,
2013-05-22 15:13:00,66.6,8.3,30.11,SSW,212,4.0,6.3,10,0.00,,,0.00,VWS V14.01,2013-05-22 22:13:00,
2013-05-22 15:17:00,66.9,8.6,30.11,West,266,8.1,8.1,10,0.00,,,0.00,VWS V14.01,2013-05-22 22:17:00,
2013-05-22 15:23:00,66.9,8.6,30.11,South,191,8.1,8.1,10,0.00,,,0.00,VWS V14.01,2013-05-22 22:23:00,
2013-05-22 15:28:00,66.7,8.5,30.11,WSW,237,4.9,7.6,10,0.00,,,0.00,VWS V14.01,2013-05-22 22:28:00,
2013-05-22 15:33:00,66.9,8.6,30.11,SSW,204,3.6,4.9,10,0.00,,,0.00,VWS V14.01,2013-05-22 22:33:00,
2013-05-22 15:38:00,66.4,8.2,30.11,SW,223,8.1,8.1,10,0.00,,,0.00,VWS V14.01,2013-05-22 22:38:00,
2013-05-22 15:43:00,66.2,8.1,30.11,West,274,3.6,3.6,10,0.00,,,0.00,VWS V14.01,2013-05-22 22:43:00,
2013-05-22 15:48:00,66.6,8.3,30.11,SSW,210,6.3,6.7,10,0.00,,,0.00,VWS V14.01,2013-05-22 22:48:00,
2013-05-22 15:53:00,66.6,8.3,30.11,SW,229,8.3,8.3,10,0.00,,,0.00,VWS V14.01,2013-05-22 22:53:00,
2013-05-22 15:58:00,66.6,8.3,30.11,WSW,245,6.3,7.6,10,0.00,,,0.00,VWS V14.01,2013-05-22 22:58:00,
2013-05-22 16:03:00,66.7,8.5,30.11,SSW,194,4.0,4.0,10,0.00,,,0.00,VWS V14.01,2013-05-22 23:03:00,
2013-05-22 16:08:00,66.7,8.5,30.11,SW,232,5.8,6.3,10,0.00,,,0.00,VWS V14.01,2013-05-22 23:08:00,
2013-05-22 16:13:00,66.2,8.1,30.11,SSW,206,5.4,5.4,10,0.00,,,0.00,VWS V14.01,2013-05-22 23:13:00,
2013-05-22 16:18:00,66.2,8.1,30.11,SSW,204,7.2,7.2,10,0.00,,,0.00,VWS V14.01,2013-05-22 23:18:00,
2013-05-22 16:23:00,66.0,7.9,30.11,NW,316,5.4,5.8,10,0.00,,,0.00,VWS V14.01,2013-05-22 23:23:00,
2013-05-22 16:28:00,65.7,7.6,30.11,SW,231,6.3,6.3,10,0.00,,,0.00,VWS V14.01,2013-05-22 23:28:00,
2013-05-22 16:33:00,65.7,7.6,30.11,South,182,6.3,6.3,10,0.00,,,0.00,VWS V14.01,2013-05-22 23:33:00,
2013-05-22 16:38:00,65.7,7.6,30.11,WSW,242,3.1,3.1,10,0.00,,,0.00,VWS V14.01,2013-05-22 23:38:00,
2013-05-22 16:43:00,65.5,7.5,30.11,SW,235,5.8,5.8,10,0.00,,,0.00,VWS V14.01,2013-05-22 23:43:00,
2013-05-22 16:48:00,65.5,7.5,30.11,West,267,3.6,4.9,10,0.00,,,0.00,VWS V14.01,2013-05-22 23:48:00,
2013-05-22 16:53:00,65.5,7.5,30.11,NNW,328,3.6,6.3,10,0.00,,,0.00,VWS V14.01,2013-05-22 23:53:00,
2013-05-22 16:58:00,64.6,6.8,30.11,West,269,5.8,5.8,10,0.00,,,0.00,VWS V14.01,2013-05-22 23:58:00,
2013-05-22 17:03:00,64.9,7.1,30.11,WSW,244,3.6,8.1,10,0.00,,,0.00,VWS V14.01,2013-05-23 00:03:00,
2013-05-22 17:08:00,65.7,7.6,30.11,NW,311,5.8,5.8,10,0.00,,,0.00,VWS V14.01,2013-05-23 00:08:00,
2013-05-22 17:13:00,65.3,7.4,30.11,WSW,258,6.7,6.7,10,0.00,,,0.00,VWS V14.01,2013-05-23 00:13:00,
2013-05-22 17:18:00,64.9,7.1,30.11,SSW,213,4.0,5.4,10,0.00,,,0.00,VWS V14.01,2013-05-23 00:18:00,
2013-05-22 17:23:00,64.4,6.7,30.11,West,262,3.6,6.3,10,0.00,,,0.00,VWS V14.01,2013-05-23 00:23:00,
2013-05-22 17:28:00,64.4,6.7,30.11,WSW,245,4.9,5.4,10,0.00,,,0.00,VWS V14.01,2013-05-23 00:28:00,
2013-05-22 17:33:00,64.4,6.7,30.11,WSW,239,5.4,6.7,10,0.00,,,0.00,VWS V14.01,2013-05-23 00:33:00,
2013-05-22 17:38:00,64.6,6.8,30.11,SSW,206,5.4,5.4,10,0.00,,,0.00,VWS V14.01,2013-05-23 00:38:00,
2013-05-22 17:43:00,64.4,6.7,30.11,West,264,4.0,6.3,10,0.00,,,0.00,VWS V14.01,2013-05-23 00:43:00,
2013-05-22 17:48:00,63.9,8.4,30.11,West,273,5.8,5.8,11,0.00,,,0.00,VWS V14.01,2013-05-23 00:48:00,
2013-05-22 17:53:00,63.9,8.4,30.11,WSW,243,4.9,5.8,11,0.00,,,0.00,VWS V14.01,2013-05-23 00:53:00,
2013-05-22 17:58:00,63.7,8.2,30.11,SW,233,3.6,6.3,11,0.00,,,0.00,VWS V14.01,2013-05-23 00:58:00,
2013-05-22 18:03:00,63.3,7.9,30.11,WSW,247,5.8,5.8,11,0.00,,,0.00,VWS V14.01,2013-05-23 01:03:00,
2013-05-22 18:09:00,63.1,7.8,30.11,WNW,302,4.9,6.3,11,0.00,,,0.00,VWS V14.01,2013-05-23 01:09:00,
2013-05-22 18:14:00,62.4,7.2,30.11,West,274,5.4,6.3,11,0.00,,,0.00,VWS V14.01,2013-05-23 01:14:00,
2013-05-22 18:19:00,62.4,7.2,30.11,WSW,246,3.6,4.9,11,0.00,,,0.00,VWS V14.01,2013-05-23 01:19:00,
2013-05-22 18:24:00,62.4,7.2,30.11,SSW,192,3.1,6.3,11,0.00,,,0.00,VWS V14.01,2013-05-23 01:24:00,
2013-05-22 18:29:00,62.1,7.0,30.11,SW,220,4.0,5.8,11,0.00,,,0.00,VWS V14.01,2013-05-23 01:29:00,
2013-05-22 18:34:00,62.1,7.0,30.11,WSW,245,3.1,5.8,11,0.00,,,0.00,VWS V14.01,2013-05-23 01:34:00,
2013-05-22 18:39:00,61.9,6.8,30.11,South,184,5.4,5.4,11,0.00,,,0.00,VWS V14.01,2013-05-23 01:39:00,
2013-05-22 18:44:00,61.7,6.7,30.11,SW,234,4.5,4.5,11,0.00,,,0.00,VWS V14.01,2013-05-23 01:44:00,
2013-05-22 18:49:00,61.3,6.4,30.11,NW,315,5.8,5.8,11,0.00,,,0.00,VWS V14.01,2013-05-23 01:49:00,
2013-05-22 18:54:00,60.6,7.8,30.11,West,264,4.9,6.3,12,0.00,,,0.00,VWS V14.01,2013-05-23 01:54:00,
2013-05-22 18:59:00,60.4,7.6,30.11,WNW,294,3.1,3.1,12,0.00,,,0.00,VWS V14.01,2013-05-23 01:59:00,
2013-05-22 19:04:00,59.9,7.2,30.11,WNW,293,3.1,3.1,12,0.00,,,0.00,VWS V14.01,2013-05-23 02:04:00,
2013-05-22 19:09:00,59.2,6.6,30.11,West,272,5.4,5.4,12,0.00,,,0.00,VWS V14.01,2013-05-23 02:09:00,
2013-05-22 19:14:00,58.8,6.3,30.11,West,268,5.8,7.6,12,0.00,,,0.00,VWS V14.01,2013-05-23 02:14:00,
2013-05-22 19:19:00,58.6,6.2,30.11,West,268,8.3,8.3,12,0.00,,,0.00,VWS V14.01,2013-05-23 02:19:00,
2013-05-22 19:24:00,58.3,5.9,30.11,WNW,298,3.6,3.6,12,0.00,,,0.00,VWS V14.01,2013-05-23 02:24:00,
2013-05-22 19:29:00,57.9,5.6,30.11,West,280,4.0,4.0,12,0.00,,,0.00,VWS V14.01,2013-05-23 02:29:00,
2013-05-22 19:34:00,57.6,5.3,30.11,West,276,3.1,3.6,12,0.00,,,0.00,VWS V14.01,2013-05-23 02:34:00,
2013-05-22 19:39:00,57.6,5.3,30.11,WSW,239,5.8,5.8,12,0.00,,,0.00,VWS V14.01,2013-05-23 02:39:00,
2013-05-22 19:44:00,57.2,5.1,30.11,WNW,286,2.7,3.6,12,0.00,,,0.00,VWS V14.01,2013-05-23 02:44:00,
2013-05-22 19:49:00,56.8,4.8,30.11,WNW,297,5.4,5.4,12,0.00,,,0.00,VWS V14.01,2013-05-23 02:49:00,
2013-05-22 19:54:00,56.5,4.5,30.11,West,281,4.9,6.3,12,0.00,,,0.00,VWS V14.01,2013-05-23 02:54:00,
2013-05-22 19:59:00,56.1,4.2,30.11,WNW,289,3.1,4.0,12,0.00,,,0.00,VWS V14.01,2013-05-23 02:59:00,
2013-05-22 20:04:00,55.6,3.8,30.11,WSW,253,3.1,3.6,12,0.00,,,0.00,VWS V14.01,2013-05-23 03:04:00,
2013-05-22 20:09:00,55.2,5.2,30.11,West,259,3.6,3.6,13,0.00,,,0.00,VWS V14.01,2013-05-23 03:09:00,
2013-05-22 20:14:00,54.9,5.0,30.11,WSW,238,3.1,4.0,13,0.00,,,0.00,VWS V14.01,2013-05-23 03:14:00,
2013-05-22 20:19:00,54.3,4.5,30.11,SW,234,4.9,4.9,13,0.00,,,0.00,VWS V14.01,2013-05-23 03:19:00,
2013-05-22 20:24:00,53.8,4.1,30.11,SW,234,2.7,4.0,13,0.00,,,0.00,VWS V14.01,2013-05-23 03:24:00,
2013-05-22 20:29:00,53.4,3.8,30.11,WNW,290,2.7,4.0,13,0.00,,,0.00,VWS V14.01,2013-05-23 03:29:00,
2013-05-22 20:34:00,53.1,3.5,30.11,WNW,293,3.1,4.0,13,0.00,,,0.00,VWS V14.01,2013-05-23 03:34:00,
2013-05-22 20:40:00,52.7,3.2,30.11,West,263,4.0,4.0,13,0.00,,,0.00,VWS V14.01,2013-05-23 03:40:00,
2013-05-22 20:45:00,52.3,7.5,30.11,SSW,202,2.7,3.1,16,0.00,,,0.00,VWS V14.01,2013-05-23 03:45:00,
2013-05-22 20:50:00,52.2,7.3,30.11,West,272,0.0,3.1,16,0.00,,,0.00,VWS V14.01,2013-05-23 03:50:00,
2013-05-22 20:55:00,52.0,7.2,30.11,WNW,292,3.1,3.6,16,0.00,,,0.00,VWS V14.01,2013-05-23 03:55:00,
2013-05-22 21:00:00,51.8,7.1,30.11,WNW,300,2.7,2.7,16,0.00,,,0.00,VWS V14.01,2013-05-23 04:00:00,
2013-05-22 21:01:00,51.8,7.1,30.11,WNW,294,3.1,3.1,16,0.00,,,0.00,VWS V14.01,2013-05-23 04:01:00,
2013-05-22 21:06:00,51.6,6.9,30.11,West,268,2.7,2.7,16,0.00,,,0.00,VWS V14.01,2013-05-23 04:06:00,
2013-05-22 21:11:00,51.4,10.6,30.11,West,264,2.7,3.1,19,0.00,,,0.00,VWS V14.01,2013-05-23 04:11:00,
2013-05-22 21:16:00,51.4,10.6,30.11,SW,219,2.2,2.2,19,0.00,,,0.00,VWS V14.01,2013-05-23 04:16:00,
2013-05-22 21:21:00,51.3,10.4,30.11,SW,235,0.0,0.0,19,0.00,,,0.00,VWS V14.01,2013-05-23 04:21:00,
2013-05-22 21:27:00,51.1,10.3,30.11,SW,214,2.7,3.6,19,0.00,,,0.00,VWS V14.01,2013-05-23 04:27:00,
2013-05-22 21:32:00,51.1,10.3,30.11,SSW,202,2.7,2.7,19,0.00,,,0.00,VWS V14.01,2013-05-23 04:32:00,
2013-05-22 21:37:00,50.9,10.1,30.11,WSW,239,2.2,4.0,19,0.00,,,0.00,VWS V14.01,2013-05-23 04:37:00,
2013-05-22 21:42:00,50.7,10.0,30.11,SW,227,3.6,3.6,19,0.00,,,0.00,VWS V14.01,2013-05-23 04:42:00,
2013-05-22 21:47:00,50.7,10.0,30.11,WSW,256,2.7,3.6,19,0.00,,,0.00,VWS V14.01,2013-05-23 04:47:00,
2013-05-22 21:52:00,50.5,9.8,30.11,South,179,2.7,2.7,19,0.00,,,0.00,VWS V14.01,2013-05-23 04:52:00,
2013-05-22 21:57:00,50.4,9.7,30.11,SW,231,2.2,2.7,19,0.00,,,0.00,VWS V14.01,2013-05-23 04:57:00,
2013-05-22 22:02:00,50.2,11.8,30.11,West,260,4.0,4.0,21,0.00,,,0.00,VWS V14.01,2013-05-23 05:02:00,
2013-05-22 22:07:00,50.2,11.8,30.11,SW,232,2.7,2.7,21,0.00,,,0.00,VWS V14.01,2013-05-23 05:07:00,
2013-05-22 22:12:00,50.2,11.8,30.11,SSW,213,2.2,2.7,21,0.00,,,0.00,VWS V14.01,2013-05-23 05:12:00,
2013-05-22 22:17:00,50.2,11.8,30.11,WSW,237,2.7,4.0,21,0.00,,,0.00,VWS V14.01,2013-05-23 05:17:00,
2013-05-22 22:22:00,50.0,14.6,30.11,WSW,257,3.6,3.6,24,0.00,,,0.00,VWS V14.01,2013-05-23 05:22:00,
2013-05-22 22:27:00,50.0,14.6,30.11,SW,215,0.0,0.0,24,0.00,,,0.00,VWS V14.01,2013-05-23 05:27:00,
2013-05-22 22:32:00,49.8,14.5,30.11,West,279,0.0,2.7,24,0.00,,,0.00,VWS V14.01,2013-05-23 05:32:00,
2013-05-22 22:37:00,49.8,14.5,30.11,SSW,210,2.7,3.1,24,0.00,,,0.00,VWS V14.01,2013-05-23 05:37:00,
2013-05-22 22:42:00,49.8,14.5,30.11,SSW,200,2.7,2.7,24,0.00,,,0.00,VWS V14.01,2013-05-23 05:42:00,
2013-05-22 22:47:00,49.8,16.3,30.11,SSW,207,2.2,3.1,26,0.00,,,0.00,VWS V14.01,2013-05-23 05:47:00,
2013-05-22 22:52:00,49.6,16.2,30.11,West,259,2.7,2.7,26,0.00,,,0.00,VWS V14.01,2013-05-23 05:52:00,
2013-05-22 22:57:00,49.6,16.2,30.11,West,264,2.7,2.7,26,0.00,,,0.00,VWS V14.01,2013-05-23 05:57:00,
2013-05-22 23:02:00,49.5,16.0,30.11,South,188,2.7,2.7,26,0.00,,,0.00,VWS V14.01,2013-05-23 06:02:00,
2013-05-22 23:07:00,49.5,16.0,30.11,SSW,199,3.1,3.1,26,0.00,,,0.00,VWS V14.01,2013-05-23 06:07:00,
2013-05-22 23:12:00,49.5,16.0,30.11,WNW,284,2.2,3.6,26,0.00,,,0.00,VWS V14.01,2013-05-23 06:12:00,
2013-05-22 23:17:00,49.3,15.9,30.11,SW,228,0.0,0.0,26,0.00,,,0.00,VWS V14.01,2013-05-23 06:17:00,
2013-05-22 23:22:00,49.3,15.9,30.11,WNW,288,0.0,3.1,26,0.00,,,0.00,VWS V14.01,2013-05-23 06:22:00,
2013-05-22 23:27:00,49.1,16.6,30.11,West,265,0.0,5.8,27,0.00,,,0.00,VWS V14.01,2013-05-23 06:27:00,
2013-05-22 23:32:00,49.1,16.6,30.11,South,178,0.0,0.0,27,0.00,,,0.00,VWS V14.01,2013-05-23 06:32:00,
2013-05-22 23:37:00,48.9,16.4,30.11,West,259,2.7,2.7,27,0.00,,,0.00,VWS V14.01,2013-05-23 06:37:00,
2013-05-22 23:42:00,48.9,16.4,30.11,NW,309,3.6,5.4,27,0.00,,,0.00,VWS V14.01,2013-05-23 06:42:00,
2013-05-22 23:47:00,48.9,16.4,30.11,West,280,2.2,3.1,27,0.00,,,0.00,VWS V14.01,2013-05-23 06:47:00,
2013-05-22 23:52:00,48.9,16.4,30.11,West,271,3.6,3.6,27,0.00,,,0.00,VWS V14.01,2013-05-23 06:52:00,
2013-05-22 23:57:00,48.9,15.6,30.11,West,279,4.9,5.4,26,0.00,,,0.00,VWS V14.01,2013-05-23 06:57:00,